Location: San Pelegr�n
(42.1868°N, 0.0079°E)
Time: 04:29:52
(UTC+00:00)

ATLAS CENTAUR R/B - Pass Details

Date: 24 January 2020
Orbit: 458 x 690 km, 64.6° (Epoch: 06 February)

Event Time Altitude Azimuth Distance (km) Brightness Sun altitude
Rises 19:03:02 0° 327° (NNW) 2,731 5.2 -22.0°
Reaches altitude 10° 19:05:19 10° 329° (NNW) 1,794 4.2 -22.5°
Enters shadow 19:08:24 50° 341° (NNW) 660 1.7 -23.0°
